Location: Palomar Mountain Lodge
(33.3110°N, 116.8495°W)
Time: 09:31:58
(UTC-07:00)

Cosmos-2242 - Pass Details

Date: 14 June 2018
Orbit: 592 x 617 km, 82.5° (Epoch: 16 October)

Event Time Altitude Azimuth Distance (km) Brightness Sun altitude
Rises 22:08:35 0° 5° (N) 2,876 7.2 -21.9°
Reaches altitude 10° 22:11:01 10° 16° (NNE) 1,971 6.1 -22.2°
Enters shadow 22:14:21 30° 64° (ENE) 1,110 4.2 -22.6°
